CAPE
0 0 0 1 3 4 0 2 4 8 5 3 4 5 1 2 3 2 3 2 2 1 1 1 1 1 7 0 3 6 0 0 245 438 687 782 487 427 363 218 186 156 2
0 0 1 3 4 1 4 4 8 2 2 4 3 2 2 3 2 2 2 2 3 2 2 1 0 3 5 1 0 4 25 4 33 421 584 378 171 30 2 2 0 0 0
0 2 3 2 2 5 2 4 2 2 3 3 4 2 3 3 3 2 3 2 2 2 1 1 0 2 0 1 1 13 20 25 83 269 440 139 3 2 1 1 0 0 0
1 3 3 5 5 5 1 5 5 3 2 2 2 2 2 2 2 2 2 1 2 1 1 0 0 0 2 0 5 6 32 34 36 186 236 58 2 5 1 2 1 0 0
2 6 4 4 3 0 3 5 2 1 1 1 2 2 2 2 3 3 3 3 1 1 0 0 0 0 4 6 1 8 30 35 73 14 14 0 2 3 2 3 4 0 0
4 3 3 2 1 2 1 5 1 1 2 2 2 2 2 2 1 1 2 2 1 2 2 1 2 1 10 0 0 0 0 1 49 32 7 2 0 6 3 4 3 1 1
2 1 1 0 1 0 0 1 1 1 2 2 2 2 2 2 0 0 2 3 3 3 2 1 1 1 2 2 1 1 0 0 0 1 0 2 4 2 0 0 0 1 0
0 0 0 0 5 0 0 0 0 0 2 2 2 2 2 3 0 0 1 2 2 2 2 1 2 1 1 2 2 1 1 0 2 2 2 2 1 0 0 0 0 0 1
0 0 2 6 3 0 0 0 0 0 0 1 2 3 3 3 0 0 0 1 2 2 2 0 1 0 0 0 0 1 1 1 0 0 0 0 0 0 0 0 0 0 5
6 3 6 0 3 1 0 0 0 0 0 0 0 0 0 1 0 0 0 1 2 1 1 0 0 0 0 0 0 0 1 7 0 1 0 7 0 0 1 10 5 4 7
5 3 0 5 0 0 0 0 0 0 0 0 0 0 0 0 0 0 0 0 1 1 0 0 0 0 0 0 0 1 1 1 1 0 0 0 1 2 11 5 1 6 5
0 0 0 0 0 0 0 0 0 0 0 0 0 0 0 0 0 0 0 0 0 0 0 1 0 0 0 0 0 0 2 9 6 7 5 5 8 5 9 3 14 6 4
0 0 0 0 0 0 0 0 0 0 0 0 0 0 0 0 0 0 0 0 0 0 0 0 0 0 0 0 0 0 5 6 5 5 13 17 14 4 5 10 8 6 3
0 0 0 0 0 0 0 0 0 0 0 0 0 0 0 0 0 0 1 3 1 10 3 1 0 0 0 0 2 0 6 3 6 8 5 1 3 4 1 0 2 0 1
0 0 0 0 0 0 0 0 0 0 0 0 0 0 0 0 0 0 0 0 0 0 2 1 0 1 0 1 2 3 0 1 0 1 3 2 3 3 1 0 0 0 2
0 0 0 0 0 0 0 0 0 0 0 0 0 0 0 0 0 0 0 0 0 0 1 3 0 3 3 4 4 4 2 2 1 1 1 0 0 1 0 0 1 1 3
0 0 0 0 0 0 0 0 0 0 0 0 0 0 0 0 0 0 0 0 0 1 1 1 1 1 1 1 1 3 3 3 4 3 2 1 0 1 1 2 5 3 4
0 0 0 0 0 0 0 0 0 0 0 0 0 0 0 0 0 0 0 1 0 0 0 0 1 2 2 2 2 3 2 1 1 1 1 2 2 2 2 4 3 3 3
0 0 0 0 0 0 0 0 0 0 0 0 0 0 0 0 0 0 0 0 0 0 0 0 1 1 1 1 1 1 2 1 2 3 3 3 3 4 4 5 3 0 0
0 0 0 0 0 0 0 0 0 0 0 0 0 0 0 0 0 0 0 0 0 0 0 1 1 2 1 2 2 3 2 2 2 3 3 3 3 5 5 6 5 2 2
0 0 0 0 0 0 0 0 0 0 0 0 0 0 0 1 0 0 0 0 0 0 1 2 1 2 3 3 3 3 3 3 3 2 2 2 3 4 3 4 4 1 1
0 0 0 0 0 0 0 0 0 0 0 0 0 0 0 0 0 0 0 0 0 1 1 2 2 3 3 4 3 3 2 2 2 2 2 3 3 2 2 3 3 1 1
0 0 0 0 0 0 0 0 0 0 0 0 0 0 0 1 0 0 0 0 0 1 1 2 3 4 3 2 4 3 3 1 2 3 2 1 1 2 2 2 3 0 1
0 0 0 0 0 0 0 0 0 0 0 0 0 0 0 1 0 0 0 1 1 2 2 7 6 5 3 3 4 5 4 1 3 2 3 3 2 1 1 2 2 2 0
0 0 0 0 0 0 0 0 0 0 0 0 0 0 0 0 0 1 2 2 4 7 5 1 5 6 4 4 4 4 0 0 1 0 3 2 2 1 2 2 1 1 1
0 0 0 0 0 0 0 0 0 0 0 0 0 0 0 0 1 1 2 3 3 3 1 0 5 6 4 4 2 0 0 0 0 0 4 2 2 1 1 1 1 2 1
CIN
0 0 -1 -1 -1 0 -1 -1 0 0 0 0 0 0 0 0 0 0 0 0 0 0 0 0 0 -1 0 -2 -2 -2 -2 0 -2 -13 -1 -1 -41 -49 -59 -97 -86 -82 0
0 -2 -1 -1 -1 0 -1 0 0 0 0 0 0 0 0 0 0 0 0 0 0 0 0 0 0 0 0 -1 0 -1 -1 -4 -35 0 0 -18 -100 -221 -12 0 0 0 0
-1 -1 -1 -1 -1 0 0 0 0 0 0 0 0 0 0 0 0 0 0 0 0 0 0 0 0 0 0 0 -1 -1 -2 -1 -37 0 0 -76 0 0 0 0 0 0 0
-2 -1 -1 0 0 0 0 0 0 0 0 0 0 0 0 0 0 0 0 0 0 0 0 0 0 -1 0 -1 -1 0 -2 -1 -97 -1 -1 -65 0 0 0 0 0 0 0
-1 0 0 0 0 0 0 0 0 0 0 0 0 0 0 0 0 0 0 0 0 0 0 0 0 0 0 -1 -1 -1 0 -24 -52 -123 -109 0 0 0 0 0 0 0 0
0 0 0 0 0 0 0 0 0 0 0 0 0 0 0 0 0 0 0 0 0 0 0 0 0 0 0 -1 0 0 0 -1 -38 -13 -8 0 0 0 0 0 0 0 0
0 0 0 0 0 -1 0 0 0 0 0 0 0 0 0 0 0 0 0 0 0 0 0 0 0 0 0 0 0 0 0 0 0 0 0 0 0 0 0 0 0 0 0
0 0 0 0 -1 0 0 0 0 0 0 0 0 0 0 0 0 0 0 0 0 0 0 0 0 0 0 0 0 0 0 0 0 0 0 0 0 0 0 0 0 0 -5
0 0 -1 -1 -1 0 0 0 0 0 0 0 0 0 0 0 0 0 0 0 0 0 0 0 0 0 0 0 0 0 0 0 0 0 0 0 0 0 0 0 0 0 -1
-1 -1 -1 0 -2 -1 -1 0 0 0 0 0 0 0 0 0 0 0 0 0 0 0 0 0 0 0 0 0 0 0 0 -1 0 -1 -1 -5 -1 0 -1 -2 -2 -4 -3
-2 -2 -1 -2 0 0 0 0 0 0 0 0 -2 0 0 0 0 0 0 0 0 0 0 0 0 0 0 0 0 -2 -1 -4 -3 0 0 0 -1 -3 -1 -1 -2 -4 -5
-1 0 0 0 0 0 0 0 0 0 0 0 0 0 0 -1 0 0 0 0 0 0 0 -1 0 0 0 0 0 0 -12 -3 -2 -2 -2 -2 -1 -2 -1 -1 0 -1 -1
0 0 0 0 0 0 0 0 0 0 0 0 0 0 0 0 0 0 0 0 0 0 0 0 0 0 0 0 0 -2 -2 -2 -1 -2 -1 -1 -2 -1 -1 0 -1 -1 -1
0 0 0 0 0 0 0 0 0 0 0 0 0 0 0 0 0 0 -2 -2 -3 -2 -9 -1 0 0 0 0 -5 -1 -2 -2 -2 -1 -1 -2 -1 -1 -1 -1 -1 -1 0
0 0 0 0 0 0 0 0 0 0 0 0 0 0 0 -1 0 0 0 0 0 0 -1 -3 -1 -1 -1 -1 -2 -2 -1 -1 -2 -2 -1 -1 -1 -1 -1 -1 0 -1 -1
0 0 0 0 0 0 0 0 0 0 0 0 0 0 0 0 0 0 0 0 0 0 -3 -2 0 -1 0 -1 -1 -1 -1 -1 -1 -1 -1 -1 -1 -1 -1 -1 -1 -1 0
0 0 0 0 0 0 0 0 0 0 0 0 0 0 0 0 0 0 0 0 0 -2 -2 -1 -1 -1 -1 -1 -1 -1 -1 0 0 0 -1 -1 0 0 0 0 0 0 0
0 0 0 0 0 0 0 0 0 0 0 0 0 0 0 0 0 0 0 -2 -2 0 -1 -1 0 0 0 0 0 0 0 -1 0 0 -1 -1 -1 0 0 0 0 0 0
0 0 0 0 0 0 0 0 0 0 0 0 0 0 0 0 0 0 0 0 -1 0 0 -1 0 0 0 0 0 -1 0 0 0 0 0 0 0 0 0 0 0 0 0
0 0 0 0 0 0 0 0 0 0 0 0 0 0 0 0 -2 0 0 0 0 0 0 0 0 0 0 0 0 0 0 0 0 0 0 0 0 0 0 0 0 0 0
0 0 0 0 0 0 0 0 0 0 0 0 0 0 0 -3 0 0 0 0 0 0 0 0 0 0 0 0 0 0 0 0 0 0 0 0 0 0 0 0 0 0 0
0 0 0 0 0 0 0 0 0 0 0 0 0 0 0 -3 0 0 0 0 0 0 0 0 0 0 0 0 0 0 0 0 0 0 0 0 0 0 0 0 0 0 0
0 0 0 0 0 0 0 0 0 0 0 0 0 0 0 -2 0 0 0 0 0 0 0 0 0 0 0 0 0 0 0 0 0 0 0 0 0 0 0 0 0 0 0
0 0 0 0 0 0 0 0 0 0 0 0 0 0 0 -3 0 0 0 0 0 0 0 -1 0 0 0 0 0 0 0 0 0 0 0 -2 0 0 0 0 0 0 0
0 0 0 0 0 0 0 0 0 0 0 0 0 0 0 0 0 0 0 0 0 -1 -1 -1 -1 0 0 0 0 0 0 0 0 0 0 0 0 0 0 0 0 0 0
0 0 0 0 0 0 0 0 0 0 0 0 0 0 0 0 0 0 -1 0 -1 -1 -1 0 0 0 0 0 0 0 0 0 0 0 0 0 0 0 0 0 0 0 0
Wind_Speed
41 40 40 40 40 39 37 38 37 36 36 31 24 23 23 23 29 28 25 26 25 25 25 23 21 20 22 27 36 40 32 30 29 26 24 18 18 18 16 18 15 14 15
38 38 39 39 38 38 38 38 36 37 35 35 37 25 22 20 16 12 10 10 13 15 19 22 31 14 14 34 36 37 31 25 29 29 23 19 20 17 15 13 13 13 12
38 38 38 38 38 38 38 35 37 39 34 32 41 34 28 15 9 12 7 5 6 14 27 27 26 21 24 30 32 35 37 28 29 25 20 19 18 16 15 13 12 11 11
38 38 38 38 37 37 35 36 39 40 37 39 38 35 30 9 13 15 8 6 12 19 25 26 24 26 27 30 30 31 33 26 34 32 23 20 20 17 14 11 11 13 13
39 38 37 36 35 35 34 37 39 36 38 38 38 37 36 17 7 24 21 9 12 18 23 25 25 26 27 29 28 29 28 29 29 21 19 20 19 15 12 13 11 11 14
37 36 34 34 33 34 36 37 37 37 38 37 36 35 30 33 26 26 25 17 18 15 16 17 19 20 24 28 28 28 29 29 25 18 18 19 17 14 13 11 10 10 12
34 33 32 30 28 34 35 36 36 37 35 28 17 19 19 26 23 21 19 19 15 12 12 10 10 11 11 10 7 9 11 14 17 17 14 14 12 11 9 11 13 16 18
31 31 30 32 33 33 35 34 30 30 11 14 17 20 19 18 19 18 11 12 15 13 12 10 10 11 11 11 11 11 12 12 12 11 11 10 8 9 7 6 6 8 8
30 30 32 31 32 31 11 11 17 15 17 13 19 16 12 13 17 14 10 7 11 13 13 13 13 15 14 13 15 15 13 13 14 13 12 10 12 10 9 9 8 7 10
30 31 31 30 30 20 27 33 5 3 4 7 8 9 10 11 16 17 13 4 10 4 4 11 17 16 16 17 17 15 15 15 15 14 16 13 13 13 14 13 15 10 10
28 29 30 31 22 18 11 18 16 15 11 4 4 4 11 11 16 18 16 10 7 15 15 17 13 12 18 19 17 15 16 17 17 18 16 14 14 15 15 17 17 17 15
28 27 27 24 21 26 22 15 13 8 9 11 8 15 18 16 22 24 23 20 21 22 22 21 22 23 21 21 19 16 17 18 16 17 18 17 16 17 18 18 17 17 16
26 25 28 27 30 29 20 20 19 11 6 7 9 11 15 17 16 10 19 20 24 24 21 19 18 19 21 21 21 18 18 16 15 17 18 18 18 19 19 18 17 16 16
29 24 28 29 29 25 20 18 15 16 13 12 8 8 7 11 10 8 5 6 19 22 20 18 19 23 20 16 12 15 18 19 19 19 19 19 19 20 21 21 19 18 14
30 31 31 31 18 10 14 15 20 24 26 24 17 14 12 10 6 2 5 2 5 7 9 9 16 18 20 21 21 21 21 21 21 21 21 21 21 21 21 22 21 19 17
31 30 28 5 11 10 7 8 27 31 30 7 6 5 6 3 1 3 4 7 7 13 26 26 25 25 25 24 24 24 23 23 23 23 22 22 22 23 23 22 21 20 17
9 7 5 2 2 3 4 7 5 13 12 4 7 5 4 6 10 9 1 16 25 29 29 28 27 27 26 26 26 25 25 25 24 24 24 23 23 23 23 22 21 19 16
6 9 2 1 1 1 2 1 1 1 1 1 2 3 3 5 20 21 21 29 30 30 29 29 28 28 28 27 27 26 26 26 25 25 24 24 23 23 23 21 19 16 14
15 10 4 2 1 1 2 1 2 2 3 3 5 5 3 26 33 30 30 31 30 30 30 30 30 30 29 29 28 28 27 27 26 26 25 24 23 22 21 19 16 13 12
16 11 6 5 4 5 6 6 7 5 5 7 13 6 2 30 29 30 32 32 32 32 31 31 31 30 30 30 29 29 28 28 27 26 25 24 22 21 19 17 13 11 11
16 15 12 9 8 9 10 10 10 9 10 12 13 15 4 31 32 33 33 33 32 31 31 31 30 30 30 30 30 29 29 28 27 26 25 24 22 20 17 14 13 11 11
19 16 14 13 11 10 11 12 14 14 13 13 9 30 25 32 33 32 31 31 30 29 29 30 30 30 27 23 20 17 15 13 18 22 22 21 19 17 15 15 14 13 12
17 18 17 15 11 11 13 16 17 16 16 16 21 28 32 32 31 30 30 30 29 29 29 29 25 18 16 17 16 14 6 2 8 9 10 13 15 15 16 16 15 14 14
20 19 17 15 15 13 14 17 18 21 16 21 27 31 32 31 31 31 30 28 28 29 26 21 18 22 15 13 12 8 8 5 4 9 12 13 14 17 19 18 16 15 16
16 16 15 16 15 13 15 17 19 19 20 24 30 31 30 31 31 29 29 29 29 27 20 19 23 20 15 11 7 4 2 3 5 8 12 14 17 19 19 18 17 16 18
17 17 18 17 16 15 14 16 18 19 21 27 30 30 30 31 29 29 29 31 27 20 18 21 20 10 14 9 4 3 6 5 6 8 13 18 19 20 19 18 18 17 16
Wind_Direction
339 340 340 340 339 339 341 341 342 341 343 345 347 343 339 337 333 327 325 318 314 311 307 303 297 292 283 272 257 255 263 267 273 278 283 291 297 297 295 292 290 286 282
343 343 341 341 342 343 343 343 344 343 346 345 339 350 348 345 344 337 325 323 322 319 316 299 235 299 289 231 244 253 261 267 270 272 282 289 292 300 298 301 298 295 291
345 343 343 344 344 345 345 349 346 340 350 351 335 348 351 353 301 269 269 302 235 217 232 229 216 196 201 218 243 240 241 262 263 276 282 288 294 298 299 303 301 301 301
347 345 346 346 346 347 350 347 342 341 347 345 344 348 355 339 285 274 266 217 212 218 224 220 207 211 215 223 230 236 236 251 250 259 277 285 289 296 297 291 291 292 295
347 349 349 349 350 350 353 346 343 356 350 350 350 345 342 14 320 300 359 96 208 226 247 230 214 215 216 217 230 232 241 239 252 273 279 287 290 295 294 290 289 292 298
352 353 355 356 356 355 348 345 353 358 355 350 348 343 332 344 322 330 12 317 37 282 272 278 254 241 220 208 209 218 243 250 268 285 286 291 293 294 293 288 292 297 303
359 1 4 8 17 359 343 357 357 356 344 333 321 325 325 337 335 340 344 355 349 329 317 303 291 288 293 311 354 338 322 309 297 290 297 300 306 302 300 291 293 290 300
9 13 14 9 0 1 358 354 337 340 336 329 329 333 337 342 349 352 347 351 3 1 357 354 356 355 357 12 27 24 6 345 328 325 327 327 337 326 335 18 360 357 23
17 17 6 16 360 352 337 56 326 326 333 337 344 348 355 356 356 354 355 4 11 13 13 15 19 27 28 27 34 35 28 21 17 25 12 358 9 29 30 37 32 8 350
20 346 19 13 354 322 337 7 332 12 357 341 358 7 14 18 4 9 11 32 18 48 56 21 23 27 26 27 31 24 25 28 28 13 26 353 357 347 333 2 340 11 356
23 353 21 4 328 320 315 327 324 326 324 349 356 44 352 3 7 7 8 15 20 15 15 15 10 13 20 21 16 12 26 30 28 27 18 1 356 358 344 346 338 340 346
20 353 349 337 329 343 335 328 327 320 323 328 328 339 347 346 357 5 8 9 13 17 22 24 29 30 24 18 10 4 11 27 13 15 17 5 348 344 348 349 353 354 356
344 338 5 20 22 2 333 337 337 329 332 325 327 329 340 346 342 330 356 3 18 24 19 12 10 14 18 16 11 1 0 349 339 354 358 358 353 353 356 360 5 7 8
2 28 30 26 26 356 337 335 335 337 334 332 321 330 324 335 340 336 313 312 355 21 21 357 8 20 2 344 322 334 347 347 348 355 354 352 353 351 353 352 358 1 16
22 21 17 22 333 316 329 337 354 2 6 359 343 336 336 331 331 340 330 290 145 142 139 339 340 341 349 351 354 354 357 356 355 354 350 348 348 349 355 357 359 2 6
24 29 48 332 324 324 317 116 49 46 28 18 33 32 110 87 322 314 336 329 325 332 24 26 20 12 9 5 1 357 355 352 350 350 350 348 347 349 354 359 2 1 6
93 99 104 331 321 317 321 324 313 126 121 78 85 61 39 358 342 332 152 97 2 27 32 26 20 13 7 2 357 354 352 350 349 349 348 346 349 353 355 358 2 7 5
298 103 268 302 309 275 307 300 197 147 129 100 84 18 57 78 352 349 346 27 24 18 16 12 8 5 2 359 356 353 350 348 347 345 346 346 346 347 349 357 10 20 358
327 315 275 250 270 239 280 277 289 305 313 323 328 330 46 66 21 10 10 18 17 15 12 11 7 4 2 359 356 353 351 347 344 342 342 341 340 342 349 357 6 351 335
329 316 277 285 290 303 310 313 315 313 315 323 336 339 45 10 4 5 12 16 18 18 18 18 15 12 8 5 0 356 351 348 344 341 338 336 334 335 340 343 336 302 300
322 322 311 306 310 310 316 321 321 318 322 327 340 338 338 20 18 18 22 22 24 26 23 20 17 14 10 8 5 1 356 350 345 339 333 328 323 321 315 298 260 267 256
338 323 319 322 315 315 317 322 327 330 327 326 317 25 356 23 23 32 35 33 32 29 27 24 21 21 27 33 37 39 41 43 14 312 300 298 292 279 263 237 233 229 222
329 337 334 330 305 308 323 332 337 332 331 329 341 1 16 24 34 38 36 35 34 32 30 31 39 45 42 39 38 39 48 247 241 227 220 235 241 238 218 211 207 208 203
3 350 338 326 328 320 325 334 334 343 329 342 356 17 27 35 36 36 38 38 37 35 40 48 46 37 36 39 45 56 71 96 175 220 228 216 211 199 193 193 196 196 193
325 335 327 331 327 318 323 333 337 336 339 347 13 27 39 37 38 43 42 39 38 42 50 47 39 37 38 49 55 56 82 232 215 210 194 192 182 183 181 183 185 186 182
342 345 346 342 336 329 324 330 334 335 340 359 24 41 39 37 45 46 43 39 44 53 48 42 38 12 41 47 34 303 279 260 228 219 187 173 173 170 172 174 176 181 182